STARLINK-34638, 64762

Orbit data source: Space-Track

STARLINK-34638, 64762 is a payload satellite owned by SpaceX/Seattle (US) in LEO that was launched on Tue, 08 Jul 2025 UTC via an FALCON 9 launch vehicle from the Air Force Eastern Test Range (AFETR). Payload-class satellites include a variety of spacecraft equipped with specific instruments for various scientific and technological missions. These include communications satellites like Starlink; space stations such as the ISS; scientific satellites like the Hubble; Earth observation satellites from companies like Planet Labs, Umbra, and HawkEye 360; GPS; miniature CubeSats for education and research; and military/defense satellites.

Loading next visibility...
Identifier
64762, 2025-147H
Orbit
LEO
Country
Flag of USUS
Related business
Manufacturer
SpaceX/Seattle
Mission
Operational Commercial Communications
Bus & Motor
STARLINK V2MO, Unknown motor
Mass
575 kg wet, ~530 kg dry
Launch date (UTC)
2025-07-08 (11 months ago)
Launch vehicle
FALCON 9
Launch site
Air Force Eastern Test Range (AFETR)
Object type
Payload
Rocket body
Debris
Shape & HBR
Box + 2 Pan, 17.7 m
Radar Cross Section
36.964 m², Large (>1 m²)

Expand to show TLE details & history
Last TLE update: 16 hours ago

TLE from 16 hours ago
0 STARLINK-34638
1 64762U 25147H   26171.16676322  .00022433  00000-0  67269-3 0  9991
2 64762  53.1584 125.1854 0001839  91.1561 268.9652 15.34418045 54465
Epoch: 2026-06-20T04:00Z
TLE epoch observation values (Epoch: 2026-06-20T04:00:08.342Z)
Latitude
-0.00003°
Longitude
156.76534°
Altitude
463.574 km
Speed
7.636 km/s
True Right ascension
08h 20m 44s
True Declination
0° 00' 00"
Sunlit
Object was in daylight at epoch
Visualization orbit readout
Latitude
Unknown
Longitude
Unknown
Altitude
Unknown
Speed
Unknown
Apparent Right ascension
Unknown
Apparent Declination
Unknown
Sunlit
N/A
Visualization observer readout
Local Sidereal Time
07:20:24
Azimuth
Unknown
Elevation
Unknown
Doppler factor
Unknown
Orbital elements
Apogee altitude
464.165 km
Perigee altitude
461.649 km
Semi-major axis
6,841.044 km
Eccentricity
0.00018
Inclination
53.1584°
RAAN
125.1854°
Arg. of periapsis
91.1561°
True anomaly
268.94413°
Mean anomaly
268.9652°
Eccentric anomaly
268.95467°
Mean motion
3.83583 °/min
Orbital period
93.85 mins
BSTAR
0.00067269
Loading maneuver chart data...
Computing Atmospheric mass density...
Loading historical data...
Loading historical data...
Loading historical data...
Loading historical data...
Loading historical data...
Loading historical data...
Loading historical data...

Documentation

Showing up to 5 results
|